Location: Unspecified
(38.9820°N, 0.0000°E)
Time: 10:57:47
(UTC+00:00)

Tiangong 2 - Visible Passes

Search period start: 24 May 2019 00:00
Search period end: 03 June 2019 00:00
Orbit: 379 x 387 km, 42.8° (Epoch: 24 May)

Date Brightness Start Highest point End Pass type
(mag) Time Alt. Az. Time Alt. Az. Time Alt. Az.
24 May 2.2 20:09:48 10° W 20:12:49 43° N 20:15:50 10° ENE visible
24 May 2.6 21:46:48 10° WNW 21:49:05 37° NNW 21:49:05 37° NNW visible
25 May 2.3 20:46:43 10° WNW 20:49:42 39° N 20:51:43 17° ENE visible
25 May 4.1 22:23:27 10° WNW 22:23:53 13° WNW 22:23:53 13° WNW visible
26 May 2.4 19:46:35 10° WNW 19:49:33 38° N 19:52:31 10° ENE visible
26 May 1.4 21:23:25 10° WNW 21:26:27 61° N 21:26:27 61° N visible
27 May 1.9 20:23:22 10° WNW 20:26:25 45° N 20:29:00 13° E visible
27 May 3.5 22:00:07 10° WNW 22:01:10 19° W 22:01:10 19° W visible
28 May 0.9 21:00:01 10° WNW 21:03:09 89° SSW 21:03:42 57° ESE visible
29 May 1.4 19:59:58 10° WNW 20:03:05 60° NNE 20:06:10 10° E visible
29 May 3.0 21:36:53 10° W 21:38:25 22° WSW 21:38:25 22° WSW visible
30 May 1.3 20:36:38 10° WNW 20:39:43 53° SSW 20:40:58 29° SE visible
31 May 3.2 21:13:57 10° WSW 21:15:44 17° SW 21:15:44 17° SW visible
01 Jun 2.3 20:13:22 10° W 20:16:10 30° SSW 20:18:21 14° SSE visible
